Weather in Lytka

Russia / Kirov Oblast     58°33′50″N   53°00′30″E
temp.,
°C
wind,
m/s
gust,
m/s
humid.,
%
clouds,
%
prec.,
mm/h
press.,
hPa
HPBL,
m
7 march, sun
sun700:00−19wsw229988 0.1 101020
03:00−20sw2210087 0.1 101020
06:00−19sw1299100 0.1 100930
09:00−15sw239298 0.1 1009256
12:00−12sw2386100 0.0 1008630
15:00−12ssw2485100 0.1 1006696
18:00−16sse2396100 0.1 100625
21:00−17sse269885 0.1 1005127
8 march, mon
mon800:00−15sse3897100 0.0 1002237
03:00−14se41095100 0.2 1000345
06:00−14se4994100 0.6 998513
09:00−13se4891100 0.9 996503
12:00−11ese4890100 0.2 994588
15:00−10ene4792100 0.7 993513
18:00−11nne4895100 0.9 994412
21:00−13n2596100 1.3 997140
9 march, tue
tue900:00−14nw2297100 0.1 99950
03:00−15nnw129799 0.2 100147
06:00−15n2497100 0.4 1002165
09:00−14nne3592100 0.6 1003408
12:00−12n3589100 0.1 1005536
15:00−13n3589100 0.2 1007613
18:00−16n3795100 0.1 1009382
21:00−21n389898 0.1 1012226
10 march, wed
wed1000:00−26nne389782 0.0 1014201
03:00−29nne379743 0.0 1015155
06:00−31n37960 0.0 1016138
09:00−26n36900 0.0 1017264
12:00−19nnw35820 0.0 1016509
15:00−18nw358410 0.0 1015624
18:00−22wnw239779 0.0 101674
21:00−23w399970 0.0 1016211
11 march, thu
thu1100:00−22w389998 0.0 1014221
03:00−22wsw379899 0.0 1014233
06:00−21w3797100 0.1 1013311
09:00−18w3693100 0.2 1013334
12:00−13w4890100 0.1 1013544
15:00−9wnw4890100 0.3 1013832
18:00−10wnw41093100 0.3 1014739
21:00−12wnw31095100 0.4 1017313